Theta_e
352 351 351 352 351 350 351 356 355 354 355 355 356 354 352 350 351 354 355 357 358 359 359 360 361 361 360 360 360 359 360 359 359 359 359 360 360 360 359 356 354 354
355 353 353 354 355 353 353 356 358 357 356 355 356 357 354 351 350 351 354 355 357 359 360 361 362 362 362 362 361 360 360 360 360 359 359 360 360 360 359 358 356 356
356 356 356 357 358 357 356 357 359 359 357 355 356 357 357 353 351 352 353 355 357 359 360 361 362 363 362 361 361 361 362 362 361 359 358 359 360 360 360 358 357 357
357 357 357 358 359 358 358 358 360 360 358 356 355 355 356 356 354 354 354 355 357 359 361 361 362 363 363 362 360 361 361 362 362 361 359 359 360 360 360 359 358 357
357 357 357 357 358 359 359 360 360 359 358 357 354 354 354 356 356 356 355 356 357 359 360 361 362 361 362 362 361 362 361 361 362 362 360 361 361 361 360 359 359 358
358 357 357 358 358 359 361 361 361 360 359 357 357 355 353 354 356 357 358 358 358 360 359 359 361 361 361 361 361 362 362 361 360 361 361 362 362 362 360 360 359 359
359 358 357 359 359 360 362 362 362 360 359 358 357 356 354 354 356 357 359 359 359 359 358 358 360 360 360 360 361 361 361 360 360 359 360 361 362 362 360 359 358 358
360 359 358 359 360 360 362 363 362 361 359 358 357 358 355 354 354 356 359 359 360 360 357 357 358 359 359 360 360 361 362 361 360 358 357 360 361 361 360 359 359 359
360 360 360 360 360 361 361 362 362 361 361 359 357 357 357 354 354 356 357 358 360 360 357 356 357 358 358 359 360 361 361 361 359 358 358 360 361 362 362 361 361 360
361 361 361 360 361 360 361 362 363 362 361 359 357 356 357 356 355 356 356 358 359 358 357 355 356 356 357 358 359 360 360 360 360 358 357 359 361 362 363 362 361 361
361 362 361 361 360 361 361 362 363 363 362 361 358 356 356 357 356 356 356 358 358 358 357 355 356 356 357 358 359 359 360 361 361 359 357 359 361 362 362 361 360 360
361 362 362 362 361 361 361 361 362 362 361 361 359 357 356 357 357 358 357 358 357 358 357 355 355 356 357 358 358 358 359 361 361 361 359 358 360 361 361 360 360 360
363 361 362 362 361 361 361 362 362 361 361 362 360 357 356 357 358 358 358 359 357 357 358 357 356 357 358 358 359 358 358 359 362 361 361 359 359 361 361 360 360 361
363 361 362 362 361 360 361 362 360 359 361 363 362 359 356 356 358 358 359 360 359 358 358 358 358 358 359 359 358 357 357 358 360 360 361 360 359 360 361 361 361 361
364 363 362 362 362 360 360 361 360 359 362 363 362 359 356 356 356 358 359 360 362 361 359 360 360 359 360 360 359 357 357 358 359 360 360 360 359 360 360 361 361 360
365 363 363 362 362 361 360 360 359 359 361 361 362 361 358 355 354 358 360 360 362 364 362 361 362 361 360 359 358 356 355 357 358 359 359 359 358 359 360 361 360 358
366 364 363 362 362 363 361 360 360 361 359 360 362 362 359 355 354 357 360 360 361 364 364 363 364 364 363 360 357 355 354 355 356 358 359 359 359 358 359 358 359 357
366 365 364 362 363 364 362 361 362 361 359 359 360 361 360 358 356 355 358 360 361 363 365 364 364 364 364 361 358 356 355 354 355 356 359 360 359 358 358 358 357 356
367 366 365 364 364 365 363 362 362 361 361 358 360 361 360 360 358 356 356 359 360 362 363 364 364 363 363 363 360 358 355 355 355 356 357 359 360 359 358 357 358 356
368 368 367 365 365 365 365 364 363 363 362 360 360 362 362 362 360 358 357 357 359 361 363 363 363 362 362 362 361 358 356 355 356 357 356 356 359 360 359 357 356 356
370 370 368 366 366 366 366 365 364 363 363 362 361 361 363 364 361 360 358 357 357 360 362 362 362 362 362 361 361 359 357 356 356 358 358 356 356 358 360 359 358 357
371 372 369 368 366 367 367 366 365 365 364 363 361 360 363 364 364 362 361 359 358 359 360 361 361 361 362 361 361 360 359 358 357 357 358 358 357 358 357 358 359 358
373 372 371 369 368 367 368 368 366 365 364 364 363 361 362 365 365 364 363 362 361 358 359 359 359 360 361 361 362 361 360 359 359 358 358 357 358 358 359 360 359 359
373 373 373 372 370 369 369 369 367 366 365 365 364 363 364 365 366 366 364 363 362 361 360 359 359 360 360 360 360 361 360 360 360 360 359 358 356 357 357 359 360 361
373 373 374 373 373 371 371 371 370 367 366 366 364 364 364 365 366 366 365 364 363 363 363 361 360 359 359 360 360 360 361 361 360 360 360 359 357 356 355 355 357 358
372 373 373 373 374 373 373 373 371 368 367 367 366 364 363 363 365 366 366 365 364 364 364 363 362 359 359 360 360 360 360 361 361 361 361 360 360 358 357 356 356 355
Wind_Speed
32 31 29 27 26 25 23 23 23 23 23 21 21 22 21 20 18 17 18 17 16 15 14 13 13 12 11 10 10 9 7 6 7 6 6 6 5 5 5 6 5 6
32 31 30 28 27 26 24 24 23 24 24 23 21 21 21 21 20 19 18 19 18 16 16 14 14 13 12 11 10 10 9 8 7 7 6 6 6 6 5 6 6 6
33 32 31 29 27 27 26 24 24 24 24 24 22 21 20 21 21 21 20 20 19 17 17 16 14 14 13 12 11 10 10 9 8 8 7 7 7 6 6 6 7 7
35 33 32 29 27 28 27 25 25 25 24 24 23 22 20 20 21 22 22 21 21 19 18 17 16 15 14 13 13 12 11 10 10 9 8 8 8 8 7 7 7 8
36 34 32 30 28 27 28 26 25 25 24 24 25 23 21 21 22 23 23 23 22 21 20 19 18 17 16 15 14 14 12 11 11 11 10 9 9 9 9 8 8 8
36 34 33 31 29 28 28 27 26 26 26 24 25 25 23 23 23 24 24 24 23 22 21 20 19 18 17 17 16 16 14 13 12 12 12 11 10 10 9 9 10 10
36 36 34 31 30 29 28 28 27 27 27 26 25 26 25 24 25 25 24 24 24 23 22 21 21 20 19 18 18 18 16 15 13 14 14 13 12 11 11 10 10 11
36 36 35 32 30 29 28 28 28 28 28 27 26 26 26 26 26 25 26 26 25 24 24 23 23 22 20 20 20 20 19 17 15 15 15 15 14 13 13 12 11 12
35 34 34 33 31 30 29 29 28 29 29 28 27 26 27 28 27 26 26 27 26 25 25 24 24 24 23 21 22 21 21 19 17 17 17 16 16 15 14 14 13 13
35 34 34 33 32 31 30 29 28 28 29 29 28 26 27 28 29 28 27 28 28 26 27 26 25 26 25 23 23 23 22 21 19 18 19 18 18 17 16 15 15 15
36 34 34 35 33 31 31 31 29 28 29 29 28 27 28 28 29 29 29 29 29 27 28 28 26 27 27 25 24 24 23 22 21 20 20 20 19 18 17 17 17 17
37 36 35 36 34 32 32 31 30 29 29 30 29 28 28 28 29 30 30 31 31 28 28 29 28 27 28 27 25 24 24 23 21 21 21 21 21 20 19 19 19 19
38 37 36 36 35 33 32 32 31 30 29 30 30 30 29 28 28 29 29 31 32 30 29 30 30 29 29 29 27 25 25 24 22 22 22 22 22 21 20 20 20 20
39 37 36 36 35 34 32 32 31 31 30 31 31 30 30 29 28 29 29 29 31 31 30 30 31 31 30 30 29 27 25 25 24 23 23 23 22 22 21 21 21 21
37 36 36 36 36 36 34 32 32 32 31 32 32 31 31 30 29 29 29 28 29 31 30 30 31 32 31 31 31 29 27 26 26 25 24 23 23 23 22 22 22 21
36 35 35 36 36 37 36 34 33 32 31 31 32 32 31 31 31 30 29 29 28 30 30 29 30 31 32 33 33 32 30 27 26 27 26 25 24 24 23 23 22 22
35 34 34 36 36 37 37 35 34 33 32 31 32 32 31 31 31 30 30 29 28 29 29 29 29 30 32 34 35 34 33 30 27 27 27 26 25 25 24 24 23 22
35 34 34 35 36 37 38 36 34 34 33 32 31 33 32 30 30 31 30 29 29 28 28 29 28 28 31 34 35 35 34 32 29 27 27 27 27 26 25 25 24 23
34 34 34 35 36 37 37 37 35 33 34 33 31 32 32 31 30 31 30 29 29 29 29 28 28 28 30 33 35 36 35 33 30 27 26 26 26 26 26 25 25 25
34 34 34 34 35 35 35 36 36 33 33 33 31 30 32 31 29 29 30 29 29 30 30 28 27 28 30 32 34 35 36 35 32 27 25 25 25 26 26 26 26 26
34 34 34 34 34 34 34 35 35 34 32 32 31 30 30 31 29 28 29 29 28 28 29 28 27 27 29 31 33 34 35 36 34 29 24 23 24 25 26 26 26 26
33 33 33 33 33 33 33 34 35 34 32 31 31 29 28 28 29 27 27 28 28 27 26 26 26 27 29 31 32 33 33 35 36 33 27 23 21 23 25 26 26 26
33 33 33 33 33 33 33 34 34 34 33 31 30 28 27 27 28 27 27 27 27 28 27 25 25 26 28 30 32 33 33 34 35 35 32 28 24 21 21 23 25 26
33 33 33 32 33 33 32 32 33 34 33 32 31 28 27 27 27 27 27 26 27 28 28 27 25 25 26 28 30 33 33 33 35 34 31 30 29 26 24 23 23 26
33 33 33 32 32 33 32 31 33 34 33 32 31 29 27 27 26 26 26 26 26 27 28 29 28 27 27 27 29 31 32 33 34 33 30 29 29 30 30 29 28 28
34 34 33 32 32 32 32 32 31 32 32 32 31 30 28 27 26 26 25 26 26 26 28 30 30 30 31 31 32 32 33 34 34 33 31 29 29 29 29 30 31 32
Wind_Direction
192 193 194 195 197 198 197 197 197 198 199 197 198 202 203 202 199 196 195 199 202 201 202 205 204 203 201 207 208 197 189 191 200 209 208 208 214 224 226 218 236 261
191 192 193 193 195 197 197 198 198 199 200 198 198 200 203 203 201 198 194 195 200 202 202 204 205 204 202 205 210 205 200 201 203 208 211 213 214 222 229 224 227 242
190 190 190 191 193 195 196 199 200 200 201 200 200 199 200 201 201 199 196 194 196 198 201 203 203 204 203 203 209 208 207 210 207 206 213 216 218 222 226 232 233 229
190 190 190 191 193 195 195 198 200 200 201 201 201 200 199 199 199 198 197 195 195 196 199 200 201 203 204 204 207 208 211 215 212 208 214 218 219 221 222 230 240 236
190 190 191 191 192 194 194 196 199 199 200 201 201 201 200 198 196 195 196 196 195 196 197 199 200 203 206 206 207 209 210 214 216 212 212 218 221 222 223 225 232 242
190 190 190 191 191 192 193 196 198 198 199 199 199 200 200 199 195 193 194 195 195 195 196 198 199 202 206 208 209 210 211 212 216 215 213 216 220 220 223 224 226 234
188 188 189 190 191 192 194 196 198 198 197 198 197 197 198 198 195 194 194 195 195 195 195 197 198 200 203 207 210 212 212 213 215 217 218 217 218 221 221 222 225 230
186 187 188 188 190 191 194 196 198 198 197 197 197 196 197 197 196 196 196 196 196 196 196 197 199 200 202 205 210 213 213 214 214 217 221 220 220 222 222 221 223 229
185 185 187 187 188 191 194 196 196 197 197 196 196 195 196 197 197 197 197 197 196 197 197 198 199 201 202 203 209 212 213 213 214 216 218 220 220 221 221 221 222 227
184 184 185 187 189 191 193 195 194 195 196 196 196 195 195 196 197 198 198 197 197 198 198 198 199 201 202 203 208 212 214 214 214 216 218 219 221 221 220 220 220 224
184 185 186 187 190 192 193 194 193 193 194 194 196 196 195 195 196 198 199 198 197 198 198 198 200 200 201 202 206 211 214 215 214 217 219 220 222 223 222 222 222 224
185 186 187 189 190 192 193 194 193 193 193 193 195 196 195 195 196 197 199 200 198 198 198 199 200 201 202 202 205 208 212 214 215 217 219 222 224 226 226 226 225 226
186 187 188 189 190 192 193 193 194 194 193 193 195 196 196 196 197 198 200 200 200 200 200 200 200 201 203 204 205 207 210 212 214 217 219 221 224 227 227 227 228 228
188 188 188 189 190 193 194 194 196 196 194 194 194 196 197 197 196 197 199 200 200 201 201 201 201 202 203 205 206 207 210 212 213 216 218 221 224 226 228 228 228 228
189 189 189 189 190 192 195 196 197 197 195 194 195 197 198 198 197 196 197 198 200 201 202 202 202 203 204 206 207 208 209 212 214 216 218 221 223 225 228 229 229 229
189 190 190 190 190 192 195 197 197 198 197 195 195 198 200 200 199 196 195 198 198 200 202 203 204 205 206 207 209 209 209 211 214 216 217 220 222 224 227 229 230 231
190 192 191 191 191 192 194 196 196 197 198 196 195 197 201 203 201 197 195 197 198 199 201 203 205 206 207 208 211 211 211 210 213 215 217 219 222 224 227 229 231 233
190 192 193 193 192 192 194 195 195 196 198 198 195 195 199 202 203 201 198 197 198 199 201 203 207 208 208 209 211 213 213 212 213 215 216 219 222 224 226 229 231 233
190 192 195 195 194 193 194 194 195 196 196 197 195 194 196 201 204 204 202 199 198 199 202 205 208 210 210 210 212 215 215 213 214 216 218 219 221 224 226 228 230 232
190 192 195 196 196 194 193 194 197 197 197 197 196 194 194 198 203 205 206 205 201 199 202 206 210 212 212 213 215 217 218 216 215 216 220 221 222 223 226 228 230 232
190 192 195 197 196 195 194 194 197 198 197 196 196 195 194 197 201 205 207 209 208 204 202 205 212 215 214 215 217 219 220 219 217 217 220 224 225 226 226 228 230 232
189 191 194 196 196 195 195 194 196 198 198 196 196 197 197 196 199 204 207 209 211 211 208 208 213 217 216 215 218 220 221 220 220 220 222 227 229 228 228 229 230 231
188 189 192 195 196 195 195 195 195 196 197 196 195 197 198 197 198 203 207 208 210 213 215 215 216 218 219 218 218 219 218 218 220 221 223 228 232 231 229 230 230 231
188 190 191 193 195 196 195 194 194 195 196 196 195 197 198 197 197 201 205 207 208 210 214 217 219 221 221 220 219 218 216 216 219 220 222 228 233 234 234 234 233 234
189 191 191 192 193 194 194 194 193 193 194 195 196 198 199 197 197 200 204 206 207 209 211 214 218 222 222 221 220 219 215 215 216 216 218 224 230 234 237 238 238 238
191 192 192 192 192 191 193 194 193 191 191 193 195 198 201 200 198 199 203 206 207 209 210 211 215 220 223 222 221 220 218 215 213 213 215 219 224 229 233 235 237 238